Content
SEND FEEDBACK

Daily
Averages
Monthly
Summary
Egypt

HURGHADA, EGYPT


Home > Middle East > Egypt
Elevation: 10 feet     Latitude: 27 18N     Longitude: 033 48E

WEATHER
 
SELECT A DAY
Number of Records: 126,940;   Date Range: 7/10/96 - 10/29/14
 
SHARE

PRINT THIS DATA

[ ← Previous Day ]
WEATHER ALMANAC - FEBRUARY 13, 2013
[ Next Day → ]
[ °C ]   °F
Weather ElementAverageHighLow
Temperature65.2 °F80.6 °F (1:00 pm)53.6 °F (6:00 am)
Dewpoint46.3 °F53.6 °F (6:00 pm)41 °F (1:00 am)
Humidity49.8 %63 % (9:00 pm)28 % (2:00 pm)
Barometer29.99 in30.06 in (8:00 am)29.95 in (2:00 pm)
Wind Speed8.1 mph15 mph (2:00 am)
Weather ElementAverage
Visibility6 mi
Wind DirectionWSW (253.7 °)

Weather ElementTotal
Precipitation---
Cooling Degree Days2.1 (Base 65)
Growing Degree Days17.1 (Base 50)
Averaged from 27 records on February 13, 2013
WEATHER CONDITIONS BREAKOUT
WIND DIRECTION BREAKOUT
WEATHER BY HOUR - FEBRUARY 13, 2013
[ °C ]   °F
Local TimeTemperatureDewpointHumidityBarometerVisibilityWind DirectionWind SpeedGust SpeedPrecipitationEventsConditions
1:00 AM57.2 °F41.0 °F55 %30.01 inWNW (290°)13.8 mphClear
2:00 AM56.0 °F42.0 °F48 %30.02 in6.0 miWNW (300°)15.0 mph
2:00 AM57.2 °F41.0 °F55 %30.01 inWNW (300°)15.0 mphClear
3:00 AM62.6 °F41.0 °F45 %30.01 inWNW (300°)13.8 mphClear
4:00 AM55.4 °F41.0 °F58 %30.01 inNW (310°)13.8 mphClear
5:00 AM55.4 °F41.0 °F58 %30.01 inWNW (290°)12.7 mphClear
6:00 AM53.6 °F41.0 °F62 %30.04 inNW (310°)10.4 mphClear
7:00 AM55.4 °F41.0 °F58 %30.04 inNW (320°)11.5 mphClear
8:00 AM60.0 °F42.0 °F40 %30.06 in6.0 miNW (310°)12.7 mphClear
8:00 AM60.8 °F42.8 °F52 %30.06 inNW (310°)12.7 mphClear
9:00 AM62.6 °F44.6 °F52 %30.06 inNW (320°)12.7 mphClear
10:00 AM66.2 °F46.4 °F49 %30.06 inNNW (330°)11.5 mphClear
11:00 AM69.8 °F46.4 °F43 %30.04 inNNW (330°)6.9 mphClear
12:00 PM75.2 °F50.0 °F41 %30.01 inNorth (10°)3.5 mphClear
1:00 PM80.6 °F51.8 °F37 %29.98 inNorth (360°)6.9 mphClear
2:00 PM79.0 °F52.0 °F28 %29.97 in6.0 miNE (40°)3.5 mphClear
2:00 PM78.8 °F51.8 °F39 %29.95 inNE (40°)3.5 mphClear
3:00 PM78.8 °F50.0 °F36 %29.95 inENE (60°)3.5 mphClear
4:00 PM78.8 °F48.2 °F34 %29.95 inENE (70°)3.5 mphClear
5:00 PM75.2 °F48.2 °F38 %29.95 inNE (40°)2.3 mphClear
6:00 PM68.0 °F53.6 °F60 %29.95 inNNW (340°)4.6 mphClear
7:00 PM66.2 °F51.8 °F60 %29.95 inNW (320°)3.5 mphClear
8:00 PM65.0 °F51.0 °F49 %29.96 in6.0 miNW (320°)6.9 mphClear
8:00 PM64.4 °F50.0 °F59 %29.95 inNW (320°)2.3 mphClear
9:00 PM62.6 °F50.0 °F63 %29.95 inNW (310°)3.5 mphClear
10:00 PM59.0 °F46.4 °F63 %29.95 inWNW (290°)4.6 mphClear
11:00 PM57.2 °F44.6 °F63 %29.95 inNW (310°)3.5 mphClear
Hourly data recorded from HEGN, located miles away from Hurghada, Egypt







STORIES FROM OUR PARTNERS